Weather History for Clayton Lake, ME

Change the Weather History Date:

Saturday, March 16, 2013

  Actual Average Record
Temperature  
Mean Temperature 16 °F -  
Max Temperature 26 °F 31 °F 41 °F (2005)
Min Temperature 7 °F 6 °F -7 °F (2003)
Degree Days  
Heating Degree Days 50    
Moisture  
Dew Point 4 °F    
Average Humidity 64    
Maximum Humidity 91    
Minimum Humidity 33    
Precipitation  
Precipitation 0.02 in - - ()
Sea Level Pressure  
Sea Level Pressure 29.78 in    
Wind  
Wind Speed 2 mph (North)    
Max Wind Speed 6 mph    
Max Gust Speed 17 mph    
Averages and records for this station are not official NWS values.
T = Trace of Precipitation, MM = Missing Value Source: NWS Daily Summary

Daily Weather History Graph

Daily Weather History Graph

Search for Another Location

Airport:

Trip Planner

Search our weather history database for the weather conditions in past years. The results will help you decide how hot, cold, wet, or windy it might be!

Date:

Astronomy

Mar. 16, 2013 Rise Set
Actual Time 6:48 AM EDT 6:45 PM EDT
Civil Twilight 6:18 AM EDT 7:15 PM EDT
Nautical Twilight 5:43 AM EDT 7:50 PM EDT
Astronomical Twilight 5:07 AM EDT 8:27 PM EDT
Moon 8:57 AM EDT (3/16) No Moon Set
Length of Visible Light 12h 57m
Length of Day
11h 57m
Waxing Crescent, 23% of the Moon is Illuminated
Mar 16
Waxing Crescent
Mar 19
First Quarter
Mar 27
Full
Apr 3
Last Quarter
Apr 10
New

Hourly Weather History & Observations

Time (EDT) Temp. Windchill Dew Point Humidity Pressure Visibility Wind Dir Wind Speed Gust Speed Precip Events Conditions
12:25 AM 7.0 °F - 3.9 °F 87% 29.67 in - Calm Calm - N/A   Unknown
1:25 AM 7.7 °F - 4.3 °F 86% 29.68 in - Calm Calm - N/A   Unknown
2:25 AM 10.6 °F - 6.8 °F 85% 29.70 in - Variable 2.3 mph - N/A   Unknown
3:26 AM 9.1 °F - 6.6 °F 89% 29.71 in - Calm Calm - 0.01 in   Unknown
4:25 AM 8.4 °F - 5.9 °F 89% 29.73 in - Calm Calm - N/A   Unknown
5:25 AM 8.6 °F 2.0 °F 6.4 °F 91% 29.75 in - Variable 3.5 mph - N/A   Unknown
6:25 AM 7.3 °F - 5.2 °F 91% 29.78 in - Calm Calm - N/A   Unknown
7:25 AM 7.9 °F - 4.8 °F 87% 29.80 in - Calm Calm - N/A   Unknown
8:25 AM 13.6 °F 7.7 °F 7.5 °F 77% 29.81 in - Variable 3.5 mph - 0.01 in   Unknown
9:25 AM 16.0 °F 7.4 °F 6.1 °F 65% 29.81 in - Variable 5.8 mph 15.0 mph N/A   Unknown
10:25 AM 18.3 °F - 5.7 °F 58% 29.80 in - Variable 2.3 mph 11.5 mph N/A   Unknown
11:32 AM 19.8 °F 13.2 °F 3.9 °F 50% 29.79 in - Variable 4.6 mph - N/A   Unknown
12:25 PM 21.4 °F 15.1 °F 4.1 °F 47% 29.78 in - Variable 4.6 mph 13.8 mph N/A   Unknown
1:27 PM 24.3 °F 17.3 °F 1.0 °F 37% 29.77 in - Variable 5.8 mph 13.8 mph N/A   Unknown
2:26 PM 24.1 °F 18.2 °F -0.9 °F 34% 29.77 in - Variable 4.6 mph - N/A   Unknown
3:25 PM 24.6 °F 20.3 °F -0.9 °F 33% 29.77 in - Variable 3.5 mph 17.3 mph N/A   Unknown
4:25 PM 24.6 °F 20.3 °F 1.0 °F 36% 29.77 in - Variable 3.5 mph - N/A   Unknown
5:25 PM 23.0 °F 15.8 °F 1.4 °F 39% 29.78 in - Variable 5.8 mph 15.0 mph N/A   Unknown
6:28 PM 21.6 °F 16.8 °F 1.4 °F 42% 29.79 in - Variable 3.5 mph - N/A   Unknown
7:25 PM 19.6 °F 14.5 °F 2.3 °F 47% 29.81 in - Variable 3.5 mph - N/A   Unknown
8:25 PM 17.6 °F 10.7 °F 3.0 °F 53% 29.83 in - Variable 4.6 mph - 0.00 in   Unknown
9:25 PM 14.7 °F - 3.2 °F 60% 29.85 in - Calm Calm - N/A   Unknown
10:25 PM 11.5 °F - 3.9 °F 72% 29.86 in - Calm Calm - N/A   Unknown
11:27 PM 8.4 °F - 2.7 °F 77% 29.87 in - Calm Calm - 0.00 in   Unknown